#timestamp,LO_Frequency,Hit,StdDev 
1624255215.1,286046998.7,N
1624255235.9,286046998.1,N
1624255255.7,286046998.3,N
1624255275.5,286046998.1,N
1624255295.4,286046998.4,N
1624255315.2,286046998.8,N
1624255335.1,286046999.2,N
1624255336.0,286046999.2,N
1624255355.8,286046997.0,N
1624255375.6,286046997.3,N
1624255395.5,286046997.4,N
1624255415.3,286046996.7,N
1624255435.2,286046997.0,N
1624255455.9,286046997.1,N
1624255475.7,286046997.4,N
1624255495.6,286046997.2,N
1624255515.4,286046997.2,N
1624255535.2,286046997.3,N
1624255555.1,286046997.3,N
1624255556.0,286046997.3,N
1624255575.8,286046997.8,N
1624255595.7,286046996.8,N
1624255615.5,286046996.7,N
1624255635.3,286046998.8,N
1624255655.2,286046997.0,Y
1624255675.0,286046998.1,P
1624255675.9,286046998.1,P
1624255695.8,286046998.8,P
1624255715.6,286046998.5,Y
1624255735.4,286047002.3,P
1624255755.3,286047001.6,N
1624255775.1,286047001.9,N
1624255795.9,286047002.7,N
1624255815.7,286047002.4,N
1624255835.6,286047002.5,N
1624255855.4,286047001.9,N
1624255875.2,286047001.5,N
1624255895.1,286047001.3,N
1624255896.0,286047001.3,N
1624255915.8,286047003.7,Y
1624255935.6,286047001.6,P
1624255955.5,286047002.0,P
1624255975.3,286047002.7,P
1624255995.2,286047002.1,Y
1624256015.9,286047001.1,P
1624256035.7,286046998.6,P
1624256055.6,286046998.1,N
1624256075.4,286046998.8,N
1624256095.2,286046998.8,N
1624256115.1,286046998.3,N
1624256116.0,286046998.3,N
1624256135.8,286046998.2,N
1624256155.7,286046998.1,N
1624256175.5,286046999.4,N
1624256195.3,286046999.2,N
1624256215.2,286046996.5,N
1624256235.0,286046999.6,N
1624256235.9,286046999.6,N
1624256255.8,286046999.6,N
1624256275.6,286046997.0,N
1624256295.4,286046996.9,N
1624256315.3,286046999.5,N
1624256335.1,286046999.1,N
1624256355.8,286046999.1,N
1624256375.7,286046999.3,N
1624256395.5,286047000.7,N
1624256415.4,286046998.6,N
1624256435.2,286047000.6,N
1624256455.0,286047000.7,N
1624256455.9,286047000.7,N
1624256475.8,286047000.5,N
1624256495.6,286046998.3,N
1624256515.4,286047001.0,N
1624256535.3,286046998.5,N
1624256555.1,286046998.6,N
1624256575.9,286046998.7,N
1624256595.7,286046999.2,N
1624256615.5,286046999.6,N
1624256635.4,286046998.3,N
1624256655.2,286046999.0,N
1624256675.0,286046996.9,N
1624256675.9,286046996.9,N
1624256695.8,286046999.2,N
1624256715.6,286046999.0,N
1624256735.5,286046999.0,N
1624256755.3,286046998.8,N
1624256775.1,286046998.2,N
1624256795.9,286047000.7,N
1624256815.7,286047001.1,N
1624256835.5,286046998.6,N
1624256855.4,286047000.9,N
1624256875.2,286047001.1,N
1624256895.1,286046998.3,N
1624256896.0,286046998.3,N
1624256915.8,286046998.9,N
1624256935.6,286046998.4,N
1624256955.5,286046998.4,N
1624256975.3,286046998.6,N
1624256995.1,286046998.6,N
1624257015.9,286046998.1,N
1624257035.7,286046999.0,N
1624257055.6,286046998.9,N
1624257075.4,286046999.2,N
1624257095.2,286046998.6,N
1624257115.1,286047000.7,N
1624257116.0,286047000.7,N
1624257135.8,286047001.0,N
1624257155.7,286047001.0,N
1624257175.5,286047001.2,N
1624257195.3,286047001.1,N
1624257215.2,286047001.1,N
1624257235.0,286047001.1,N
1624257235.9,286047001.1,N
1624257255.7,286047001.2,N
1624257275.6,286046998.1,N
1624257295.4,286046998.6,N
1624257315.3,286047001.2,N
1624257335.1,286047000.0,N
1624257336.0,286047000.0,N
1624257355.8,286047000.4,N
1624257375.7,286047002.8,N
1624257395.5,286047000.8,N
1624257415.3,286046999.0,N
1624257435.2,286046997.4,N
1624257455.0,286046997.3,N
1624257455.9,286046997.3,N
1624257475.8,286046996.5,N
1624257495.6,286046999.4,N
1624257515.4,286046997.9,N
1624257535.3,286046996.8,N
1624257555.1,286046996.9,N
1624257575.8,286046999.2,N
1624257595.7,286046998.8,N
1624257615.5,286046996.7,N
1624257635.4,286046994.9,N
1624257655.2,286046998.0,N
1624257675.0,286046997.3,N
1624257675.9,286046997.3,N
1624257695.8,286046996.9,N
1624257715.6,286046996.5,N
1624257735.5,286046999.3,N
1624257755.3,286046998.5,N
1624257775.1,286046998.5,N
1624257795.9,286046999.3,N
1624257815.7,286046997.7,N
1624257835.5,286046996.5,N
1624257855.4,286046998.4,N
1624257875.2,286046998.4,N
1624257895.1,286046999.3,N
1624257896.0,286046999.3,N
1624257915.8,286046998.9,N
1624257935.6,286046998.9,N
1624257955.5,286046998.9,N
1624257975.3,286046999.6,N
1624257995.1,286046999.1,N
1624258015.9,286046998.9,N
1624258035.7,286046998.4,N
1624258055.6,286046998.6,N
1624258075.4,286046999.3,N
1624258095.2,286046997.0,N
1624258115.1,286046998.7,N
1624258116.0,286046998.7,N
1624258135.8,286046999.2,N
1624258155.6,286046999.1,N
1624258175.5,286046997.1,N
1624258195.3,286046999.2,N
1624258215.2,286046999.0,N
1624258235.9,286046998.7,N
1624258255.7,286046998.8,N
1624258275.6,286046997.0,Y
1624258295.4,286046999.4,P
1624258315.3,286046997.6,P
1624258335.1,286046999.4,N
1624258336.0,286046999.4,N
1624258355.8,286046999.3,N
1624258375.7,286047000.9,N
1624258395.5,286047000.7,N
1624258415.4,286047001.1,N
1624258435.2,286047000.6,N
1624258455.0,286046999.7,N
1624258455.9,286046999.7,N
1624258475.8,286047000.2,N
1624258495.6,286046999.8,N
1624258515.4,286047000.4,N
1624258535.3,286047001.1,N
1624258555.1,286046999.3,N
1624258575.9,286046998.8,N
1624258595.7,286046999.3,N
1624258615.5,286046997.3,Y
1624258635.4,286046995.0,P
1624258655.2,286046997.5,N
1624258675.0,286046995.0,N
1624258675.9,286046995.0,N
1624258695.8,286046995.5,N
1624258715.6,286046995.2,N
1624258735.5,286046995.5,N
1624258755.3,286046995.6,N
1624258775.1,286046996.1,N
1624258795.9,286046996.1,N
